カタログに戻る

STARLINK-32895

運用中通信VLEO
NORAD 63081·PAYLOAD·🇺🇸 United States

打ち上げ Feb 23, 2025 から Vandenberg Space Force Base

Loading…

次のパス (今後24時間)

TLE

最新Source: CelesTrak SupGP

元期: Sep 15, 2026, 03:09 UTC

1 63081C 25037E   26258.13173611 -.00038858  00000+0 -13520-2 0  2585
2 63081  70.0005 235.2343 0003152 269.6710 250.3886 15.29593633    15

AllMySatでSTARLINK-32895をリアルタイム追跡

Download on the App Store